Cedar City, UT

10:08 PM MDT on August 24, 2016 (GMT -0600)
Cedar City Regional

Weather History for KCDC - April, 2013

Change the Weather History Date:

Thursday, April 25, 2013

  Actual Average Record
Temperature  
Mean Temperature 48 °F 49 °F  
Max Temperature 68 °F 64 °F 77 °F (1953)
Min Temperature 28 °F 34 °F 18 °F (2008)
Degree Days  
Heating Degree Days 17 16  
Month to date heating degree days 508 479  
Since 1 July heating degree days 5788 5813  
Cooling Degree Days 0 0  
Month to date cooling degree days 0 0  
Year to date cooling degree days 0 0  
Moisture  
Dew Point 18 °F    
Average Humidity 41    
Maximum Humidity 69    
Minimum Humidity 12    
Precipitation  
Precipitation 0.00 in 0.03 in 0.28 in (1985)
Month to date precipitation 0.91 0.91  
Year to date precipitation 3.72 4.12  
Sea Level Pressure  
Sea Level Pressure 29.94 in    
Wind  
Wind Speed 3 mph (NE)    
Max Wind Speed 13 mph    
Max Gust Speed 17 mph    
Visibility 10 miles    
Events      
T = Trace of Precipitation, MM = Missing Value Source: NWS Daily Summary

Daily Weather History Graph

Daily Weather History Graph

Search for Another Location

Airport or City:

Trip Planner

Search our weather history database for the weather conditions in past years. The results will help you decide how hot, cold, wet, or windy it might be!

Date:

Astronomy

Apr. 25, 2013 Rise Set
Actual Time 6:43 AM MDT 8:17 PM MDT
Civil Twilight 6:15 AM MDT 8:45 PM MDT
Nautical Twilight 5:42 AM MDT 9:18 PM MDT
Astronomical Twilight 5:07 AM MDT 9:54 PM MDT
Moon 8:34 PM MDT 6:29 AM MDT
Length of Visible Light 14h 29m
Length of Day
13h 33m
Full, 100% of the Moon is Illuminated
Apr 25
Full
Apr 25
Full
May 2
Last Quarter
May 9
New
May 17
First Quarter

Hourly Weather History & Observations

Time (MDT) Temp. Windchill Dew Point Humidity Pressure Visibility Wind Dir Wind Speed Gust Speed Precip Events Conditions
12:53 AM 39.0 °F 36.8 °F 19.9 °F 46% 29.99 in 10.0 mi SSE 3.5 mph - N/A   Clear
1:53 AM 36.0 °F - 18.0 °F 48% 29.99 in 10.0 mi Calm Calm - N/A   Clear
2:53 AM 35.1 °F 32.2 °F 19.9 °F 54% 29.99 in 10.0 mi ESE 3.5 mph - N/A   Clear
3:53 AM 35.1 °F 30.1 °F 19.0 °F 52% 29.97 in 10.0 mi SSE 5.8 mph - N/A   Clear
4:53 AM 32.0 °F 27.5 °F 18.0 °F 56% 29.96 in 10.0 mi South 4.6 mph - N/A   Clear
5:53 AM 32.0 °F - 21.0 °F 64% 29.96 in 10.0 mi Calm Calm - N/A   Clear
6:53 AM 35.1 °F 32.2 °F 19.0 °F 52% 29.96 in 10.0 mi SSE 3.5 mph - N/A   Clear
7:53 AM 39.9 °F - 21.0 °F 47% 29.98 in 10.0 mi Calm Calm - N/A   Clear
8:53 AM 44.1 °F - 21.0 °F 40% 29.98 in 10.0 mi Calm Calm - N/A   Clear
9:53 AM 48.9 °F - 19.0 °F 31% 29.96 in 10.0 mi Calm Calm - N/A   Clear
10:53 AM 53.1 °F - 17.1 °F 24% 29.97 in 10.0 mi Calm Calm - N/A   Clear
11:53 AM 57.0 °F - 16.0 °F 20% 29.95 in 10.0 mi NE 3.5 mph - N/A   Clear
12:53 PM 62.1 °F - 17.1 °F 18% 29.91 in 10.0 mi Calm Calm - N/A   Clear
1:53 PM 64.9 °F - 16.0 °F 15% 29.89 in 10.0 mi Variable 3.5 mph - N/A   Clear
2:53 PM 64.0 °F - 12.9 °F 14% 29.88 in 10.0 mi Variable 5.8 mph - N/A   Clear
3:53 PM 68.0 °F - 14.0 °F 12% 29.86 in 10.0 mi NNW 10.4 mph 16.1 mph N/A   Clear
4:53 PM 66.0 °F - 14.0 °F 13% 29.87 in 10.0 mi West 6.9 mph 17.3 mph N/A   Clear
5:53 PM 66.0 °F - 12.9 °F 13% 29.88 in 10.0 mi NNE 8.1 mph - N/A   Clear
6:53 PM 64.0 °F - 14.0 °F 14% 29.87 in 10.0 mi NNE 4.6 mph - N/A   Partly Cloudy
7:53 PM 57.9 °F - 15.1 °F 19% 29.89 in 10.0 mi North 5.8 mph - N/A   Partly Cloudy
8:53 PM 51.1 °F - 21.0 °F 31% 29.92 in 10.0 mi ENE 4.6 mph - N/A   Clear
9:53 PM 48.0 °F - 18.0 °F 30% 29.96 in 10.0 mi North 6.9 mph - N/A   Clear
10:53 PM 42.1 °F 40.2 °F 19.9 °F 41% 29.99 in 10.0 mi NNW 3.5 mph - N/A   Clear
11:53 PM 42.1 °F - 19.9 °F 41% 30.00 in 10.0 mi Calm Calm - N/A   Clear